• In India
  • List of Countries
  • For 7 days
  • Water Temperature
  • Satellite Maps
  • Weather Map
  • Weather Widgets
  • user-avatar
    Login

    Hourly Weather Krzywie

    Today, 18 July, Wednesday

    Time Temperature Precipitation Wind Pressure Humidity
    00:00 +18°C° 0 mm 2 mps 737 mmHg 96%
    01:00 +18°C° 0 mm 2 mps 736 mmHg 98%
    02:00 +18°C° 0.1 mm 2 mps 736 mmHg 98%
    03:00 +18°C° 0.1 mm 2 mps 736 mmHg 98%
    04:00 +18°C° 0.1 mm 2 mps 736 mmHg 98%
    05:00 +19°C° 0.1 mm 2 mps 737 mmHg 96%
    06:00 +19°C° 0.1 mm 2 mps 737 mmHg 94%
    07:00 +20°C° 0.1 mm 2 mps 737 mmHg 93%
    08:00 +21°C° 0.1 mm 2 mps 737 mmHg 89%
    09:00 +23°C° 0.1 mm 2 mps 737 mmHg 85%
    10:00 +24°C° 0.1 mm 2 mps 737 mmHg 80%
    11:00 +25°C° 0.6 mm 3 mps 737 mmHg 79%
    12:00 +26°C° 0.6 mm 3 mps 737 mmHg 78%
    13:00 +26°C° 0.6 mm 3 mps 737 mmHg 77%
    14:00 +26°C° 1.1 mm 3 mps 737 mmHg 77%
    15:00 +27°C° 1.1 mm 3 mps 737 mmHg 78%
    16:00 +27°C° 1.1 mm 3 mps 737 mmHg 78%
    17:00 +26°C° 0.7 mm 3 mps 737 mmHg 82%
    18:00 +25°C° 0.7 mm 3 mps 737 mmHg 85%
    19:00 +24°C° 0.7 mm 2 mps 737 mmHg 89%
    20:00 +24°C° 0.2 mm 2 mps 738 mmHg 91%
    21:00 +22°C° 0.2 mm 3 mps 738 mmHg 93%
    22:00 +21°C° 0.2 mm 3 mps 738 mmHg 95%
    23:00 +21°C° 0.2 mm 3 mps 738 mmHg 96%

    Tomorrow, 19 July, Thursday

    Time Temperature Precipitation Wind Pressure Humidity
    00:00 +21°C° 0.2 mm 3 mps 739 mmHg 96%
    01:00 +20°C° 0.2 mm 3 mps 739 mmHg 97%
    02:00 +20°C° 0.3 mm 3 mps 739 mmHg 97%
    03:00 +20°C° 0.3 mm 3 mps 739 mmHg 98%
    04:00 +20°C° 0.3 mm 3 mps 739 mmHg 98%
    05:00 +21°C° 0.7 mm 3 mps 740 mmHg 96%
    06:00 +21°C° 0.7 mm 3 mps 740 mmHg 95%
    07:00 +22°C° 0.7 mm 3 mps 740 mmHg 93%
    08:00 +23°C° 0.5 mm 4 mps 740 mmHg 88%
    09:00 +23°C° 0.5 mm 4 mps 740 mmHg 83%
    10:00 +25°C° 0.5 mm 4 mps 741 mmHg 79%
    11:00 +26°C° 0.5 mm 4 mps 741 mmHg 74%
    12:00 +27°C° 0.5 mm 5 mps 740 mmHg 70%
    13:00 +28°C° 0.5 mm 5 mps 740 mmHg 66%
    14:00 +28°C° 0.3 mm 5 mps 740 mmHg 65%
    15:00 +28°C° 0.3 mm 5 mps 740 mmHg 65%
    16:00 +28°C° 0.3 mm 5 mps 740 mmHg 64%
    17:00 +26°C° 0.2 mm 5 mps 740 mmHg 69%
    18:00 +25°C° 0.2 mm 4 mps 741 mmHg 75%
    19:00 +22°C° 0.2 mm 4 mps 741 mmHg 81%
    20:00 +22°C° 0 mm 4 mps 741 mmHg 84%
    21:00 +21°C° 0 mm 3 mps 741 mmHg 88%
    22:00 +20°C° 0 mm 3 mps 741 mmHg 91%
    23:00 +19°C° 0 mm 3 mps 741 mmHg 92%

    Day after tomorrow, 20 July, Friday

    Time Temperature Precipitation Wind Pressure Humidity
    00:00 +19°C° 0 mm 3 mps 741 mmHg 93%
    01:00 +19°C° 0 mm 4 mps 741 mmHg 94%
    02:00 +19°C° 0 mm 4 mps 741 mmHg 95%
    03:00 +18°C° 0 mm 4 mps 741 mmHg 95%
    04:00 +18°C° 0 mm 4 mps 741 mmHg 96%
    05:00 +19°C° 0 mm 4 mps 742 mmHg 92%
    06:00 +20°C° 0 mm 4 mps 742 mmHg 88%
    07:00 +21°C° 0 mm 5 mps 742 mmHg 84%
    08:00 +22°C° 0.2 mm 5 mps 742 mmHg 78%
    09:00 +25°C° 0.2 mm 5 mps 742 mmHg 73%
    10:00 +26°C° 0.2 mm 5 mps 742 mmHg 67%
    11:00 +27°C° 0.4 mm 6 mps 742 mmHg 64%
    12:00 +27°C° 0.4 mm 6 mps 742 mmHg 61%
    13:00 +28°C° 0.4 mm 6 mps 742 mmHg 57%
    14:00 +28°C° 0.1 mm 6 mps 742 mmHg 57%
    15:00 +28°C° 0.1 mm 5 mps 742 mmHg 56%
    16:00 +28°C° 0.1 mm 5 mps 741 mmHg 56%
    17:00 +27°C° 0 mm 5 mps 741 mmHg 62%
    18:00 +25°C° 0 mm 4 mps 741 mmHg 68%
    19:00 +24°C° 0 mm 3 mps 741 mmHg 73%
    20:00 +22°C° 0 mm 3 mps 742 mmHg 77%
    21:00 +21°C° 0 mm 3 mps 742 mmHg 81%
    22:00 +20°C° 0 mm 3 mps 742 mmHg 85%
    23:00 +19°C° 0 mm 3 mps 742 mmHg 87%

    21 July, Saturday

    Time Temperature Precipitation Wind Pressure Humidity
    00:00 +19°C° 0 mm 3 mps 742 mmHg 90%
    01:00 +18°C° 0 mm 3 mps 742 mmHg 93%
    02:00 +18°C° 0 mm 2 mps 742 mmHg 93%
    03:00 +17°C° 0 mm 2 mps 742 mmHg 94%
    04:00 +17°C° 0 mm 2 mps 742 mmHg 95%
    05:00 +18°C° 0 mm 2 mps 742 mmHg 89%
    06:00 +20°C° 0 mm 2 mps 742 mmHg 83%
    07:00 +21°C° 0 mm 3 mps 742 mmHg 76%
    08:00 +22°C° 0 mm 3 mps 742 mmHg 70%
    09:00 +25°C° 0 mm 3 mps 742 mmHg 63%
    10:00 +26°C° 0 mm 3 mps 742 mmHg 56%
    11:00 +27°C° 0 mm 3 mps 742 mmHg 54%
    12:00 +28°C° 0 mm 3 mps 742 mmHg 52%
    13:00 +29°C° 0 mm 3 mps 741 mmHg 50%
    14:00 +28°C° 0 mm 3 mps 741 mmHg 51%
    15:00 +28°C° 0 mm 3 mps 741 mmHg 53%
    16:00 +28°C° 0 mm 3 mps 741 mmHg 54%
    17:00 +27°C° 0 mm 2 mps 741 mmHg 60%
    18:00 +25°C° 0 mm 2 mps 741 mmHg 66%
    19:00 +24°C° 0 mm 2 mps 741 mmHg 72%
    20:00 +23°C° 0 mm 2 mps 741 mmHg 74%
    21:00 +21°C° 0 mm 2 mps 741 mmHg 77%
    22:00 +20°C° 0 mm 2 mps 741 mmHg 79%
    23:00 +19°C° 0 mm 2 mps 741 mmHg 80%

    22 July, Sunday

    Time Temperature Precipitation Wind Pressure Humidity
    00:00 +19°C° 0 mm 2 mps 741 mmHg 81%
    01:00 +19°C° 0 mm 1 mps 741 mmHg 83%
    02:00 +19°C° 0 mm 1 mps 741 mmHg 83%
    03:00 +18°C° 0 mm 1 mps 741 mmHg 84%
    04:00 +18°C° 0 mm 1 mps 741 mmHg 84%
    05:00 +19°C° 0 mm 1 mps 741 mmHg 79%
    06:00 +21°C° 0 mm 1 mps 741 mmHg 74%
    07:00 +23°C° 0 mm 1 mps 741 mmHg 69%
    08:00 +24°C° 0 mm 1 mps 741 mmHg 64%
    09:00 +26°C° 0 mm 2 mps 741 mmHg 59%
    10:00 +27°C° 0 mm 2 mps 741 mmHg 54%
    11:00 +28°C° 0 mm 2 mps 741 mmHg 51%
    12:00 +28°C° 0 mm 2 mps 741 mmHg 48%
    13:00 +29°C° 0 mm 2 mps 740 mmHg 45%
    14:00 +29°C° 0 mm 2 mps 740 mmHg 45%
    15:00 +29°C° 0 mm 3 mps 740 mmHg 46%
    16:00 +28°C° 0 mm 3 mps 740 mmHg 47%
    17:00 +27°C° 0 mm 2 mps 741 mmHg 54%
    18:00 +25°C° 0 mm 2 mps 741 mmHg 61%
    19:00 +24°C° 0 mm 2 mps 741 mmHg 67%
    20:00 +23°C° 0 mm 2 mps 741 mmHg 69%
    21:00 +21°C° 0 mm 2 mps 741 mmHg 71%
    22:00 +20°C° 0 mm 2 mps 741 mmHg 73%
    23:00 +20°C° 0 mm 2 mps 742 mmHg 75%

    23 July, Monday

    Time Temperature Precipitation Wind Pressure Humidity
    00:00 +19°C° 0 mm 2 mps 742 mmHg 78%
    01:00 +19°C° 0 mm 2 mps 742 mmHg 80%
    02:00 +18°C° 0 mm 2 mps 742 mmHg 84%
    03:00 +18°C° 0 mm 2 mps 742 mmHg 88%
    04:00 +17°C° 0 mm 2 mps 742 mmHg 92%
    05:00 +19°C° 0 mm 3 mps 742 mmHg 87%
    06:00 +20°C° 0 mm 3 mps 743 mmHg 82%
    07:00 +21°C° 0 mm 4 mps 743 mmHg 76%
    08:00 +22°C° 0 mm 4 mps 743 mmHg 70%
    09:00 +25°C° 0 mm 4 mps 743 mmHg 64%
    10:00 +26°C° 0 mm 5 mps 743 mmHg 57%
    11:00 +26°C° 0 mm 5 mps 743 mmHg 55%
    12:00 +27°C° 0 mm 5 mps 743 mmHg 52%
    13:00 +28°C° 0 mm 5 mps 743 mmHg 50%
    14:00 +27°C° 0 mm 5 mps 743 mmHg 50%
    15:00 +27°C° 0 mm 5 mps 743 mmHg 51%
    16:00 +27°C° 0 mm 5 mps 742 mmHg 52%
    17:00 +26°C° 0 mm 5 mps 743 mmHg 58%
    18:00 +23°C° 0 mm 4 mps 743 mmHg 63%
    19:00 +22°C° 0 mm 3 mps 743 mmHg 69%
    20:00 +21°C° 0 mm 3 mps 743 mmHg 73%
    21:00 +20°C° 0 mm 3 mps 743 mmHg 76%
    22:00 +19°C° 0 mm 3 mps 744 mmHg 80%
    23:00 +18°C° 0 mm 3 mps 743 mmHg 83%
    Show more